Date String (YYYY-MM-DD hh:mm:ss) UTC,Instrument flags,Ambient pressure (hPa),Sample flow (lpm),Bypass flow (lpm),Sample temperature (°C),Ambient temperature (°C),ASC tube jacket temperature (°C),LED temperature (°C),Box temperature (°C),Sample RH (%),Span deviation,Mass concentration (μg/m³),Mass concentration (μg/m³),Mass concentration (μg/m³)
DateTimeUTC,F1_M11,P_M11,Q1_M11,Q2_M11,T1_M11,T2_M11,T3_M11,T4_M11,T5_M11,U1_M11,ZSPAN_M11,X0_M11,X2_M11,X1_M11
2022-12-06 12:00:00,,0819.0,5.00,0.00,21.9,20.5,00.0,30.9,23.6,17.7,0000.0,0004.96,0002.36,0001.58
2022-12-06 12:01:00,,0819.0,5.02,0.00,21.9,20.9,00.0,30.8,23.8,17.7,0000.0,0005.14,0002.36,0001.59
2022-12-06 12:02:00,,0819.0,5.00,0.00,22.0,21.7,00.0,30.8,24.0,17.6,0000.0,0005.10,0002.34,0001.61
2022-12-06 12:03:00,,0819.1,5.00,0.00,22.1,22.0,00.0,30.8,24.1,17.5,0000.0,0005.24,0002.39,0001.62
2022-12-06 12:04:00,,0819.1,4.99,0.00,22.1,21.6,00.0,30.9,24.1,17.3,0000.0,0005.32,0002.44,0001.64
2022-12-06 12:05:00,,0819.1,4.99,0.00,22.1,21.2,00.0,30.9,24.0,17.3,0000.0,0005.39,0002.50,0001.66
2022-12-06 12:06:00,,0819.1,5.00,0.00,22.1,20.9,00.0,31.0,23.9,17.3,0000.0,0005.43,0002.53,0001.68
2022-12-06 12:07:00,,0819.1,5.00,0.00,22.0,20.6,00.0,31.0,23.8,17.2,0000.0,0004.59,0002.52,0001.69
2022-12-06 12:08:00,,0819.1,5.00,0.00,22.0,20.3,00.0,31.0,23.7,17.3,0000.0,0004.43,0002.53,0001.71
2022-12-06 12:09:00,,0819.2,5.00,0.00,21.9,20.1,00.0,31.0,23.6,17.2,0000.0,0004.42,0002.50,0001.70
2022-12-06 12:10:00,,0819.1,5.00,0.00,21.8,19.9,00.0,30.9,23.5,17.1,0000.0,0004.44,0002.49,0001.70
2022-12-06 12:11:00,,0819.1,5.00,0.00,21.8,19.8,00.0,30.9,23.4,17.1,0000.0,0004.28,0002.46,0001.69
2022-12-06 12:12:00,,0819.1,5.00,0.00,21.7,19.7,00.0,30.9,23.4,17.3,0000.0,0004.10,0002.42,0001.66
2022-12-06 12:13:00,,0819.2,5.01,0.00,21.7,19.7,00.0,30.9,23.4,17.3,0000.0,0004.09,0002.40,0001.64
2022-12-06 12:14:00,,0819.1,5.00,0.00,21.6,19.6,00.0,30.8,23.3,17.1,0000.0,0003.97,0002.35,0001.61
2022-12-06 12:15:00,,0819.2,5.00,0.00,21.5,19.4,00.0,30.8,23.2,17.1,0000.0,0003.84,0002.27,0001.58
2022-12-06 12:16:00,,0819.1,5.00,0.00,21.5,19.3,00.0,30.8,23.1,17.0,0000.0,0003.67,0002.17,0001.54
2022-12-06 12:17:00,,0819.1,5.00,0.00,21.4,19.3,00.0,30.7,23.1,16.6,0000.0,0003.56,0002.09,0001.47
2022-12-06 12:18:00,,0819.0,5.01,0.00,21.4,19.9,00.0,30.6,23.2,16.2,0000.0,0003.32,0001.99,0001.41
2022-12-06 12:19:00,,0819.1,5.00,0.00,21.6,21.1,00.0,30.6,23.4,16.2,0000.0,0003.13,0001.89,0001.34
2022-12-06 12:20:00,,0819.0,4.99,0.00,21.7,21.4,00.0,30.6,23.6,16.2,0000.0,0002.99,0001.82,0001.30
2022-12-06 12:21:00,,0819.0,4.99,0.00,21.7,21.1,00.0,30.6,23.6,16.2,0000.0,0002.96,0001.82,0001.28
2022-12-06 12:22:00,,0819.0,5.00,0.00,21.7,20.7,00.0,30.7,23.5,16.1,0000.0,0002.89,0001.77,0001.24
2022-12-06 12:23:00,,0819.0,5.00,0.00,21.6,20.4,00.0,30.7,23.4,15.9,0000.0,0002.84,0001.74,0001.21
2022-12-06 12:24:00,,0819.0,5.00,0.00,21.6,20.3,00.0,30.7,23.4,15.8,0000.0,0002.68,0001.66,0001.15
2022-12-06 12:25:00,,0819.0,5.00,0.00,21.6,20.2,00.0,30.7,23.4,15.8,0000.0,0002.61,0001.60,0001.10
2022-12-06 12:26:00,,0819.0,5.00,0.00,21.6,20.1,00.0,30.7,23.4,15.8,0000.0,0002.59,0001.58,0001.06
2022-12-06 12:27:00,,0819.0,5.00,0.00,21.6,20.1,00.0,30.7,23.4,15.6,0000.0,0002.67,0001.57,0001.03
2022-12-06 12:28:00,,0819.0,5.00,0.00,21.6,20.0,00.0,30.7,23.4,15.7,0000.0,0002.67,0001.57,0001.03
2022-12-06 12:29:00,,0819.0,5.00,0.00,21.6,20.0,00.0,30.7,23.4,15.3,0000.0,0002.67,0001.56,0001.02
2022-12-06 12:30:00,,0819.0,5.00,0.00,21.6,19.9,00.0,30.6,23.3,14.9,0000.0,0002.65,0001.54,0000.99
2022-12-06 12:31:00,,0819.0,5.00,0.00,21.5,19.8,00.0,30.6,23.2,15.1,0000.0,0002.56,0001.48,0000.94
2022-12-06 12:32:00,,0819.0,5.00,0.00,21.5,19.6,00.0,30.6,23.2,15.2,0000.0,0002.45,0001.39,0000.89
2022-12-06 12:33:00,,0819.0,5.01,0.00,21.5,19.5,00.0,30.6,23.1,15.2,0000.0,0002.73,0001.36,0000.86
2022-12-06 12:34:00,,0819.0,5.01,0.00,21.4,19.4,00.0,30.6,23.1,15.4,0000.0,0003.89,0001.30,0000.83
2022-12-06 12:35:00,,0819.0,5.00,0.00,21.4,19.4,00.0,30.5,23.1,15.5,0000.0,0004.14,0001.27,0000.82
2022-12-06 12:36:00,,0819.1,5.00,0.00,21.4,19.9,00.0,30.5,23.1,15.5,0000.0,0004.17,0001.29,0000.82
2022-12-06 12:37:00,,0819.1,5.00,0.00,21.5,21.1,00.0,30.4,23.4,15.4,0000.0,0004.13,0001.26,0000.80
2022-12-06 12:38:00,,0819.1,4.98,0.00,21.6,21.6,00.0,30.4,23.6,15.2,0000.0,0004.07,0001.24,0000.80
2022-12-06 12:39:00,,0819.0,4.99,0.00,21.6,21.1,00.0,30.5,23.5,15.2,0000.0,0004.16,0001.25,0000.79
2022-12-06 12:40:00,,0819.0,5.01,0.00,21.6,20.7,00.0,30.5,23.4,14.9,0000.0,0004.13,0001.24,0000.79
2022-12-06 12:41:00,,0819.0,5.01,0.00,21.6,20.4,00.0,30.5,23.3,14.6,0000.0,0004.11,0001.23,0000.79
2022-12-06 12:42:00,,0819.0,5.00,0.00,21.6,20.1,00.0,30.6,23.3,14.4,0000.0,0004.09,0001.22,0000.79
2022-12-06 12:43:00,,0819.1,5.00,0.00,21.5,20.0,00.0,30.6,23.2,14.8,0000.0,0004.09,0001.24,0000.80
2022-12-06 12:44:00,,0819.1,5.00,0.00,21.5,19.8,00.0,30.5,23.2,14.9,0000.0,0003.89,0001.23,0000.81
2022-12-06 12:45:00,,0819.1,5.00,0.00,21.5,19.8,00.0,30.5,23.2,15.0,0000.0,0002.59,0001.24,0000.82
2022-12-06 12:46:00,,0819.1,4.99,0.00,21.4,19.6,00.0,30.5,23.1,15.1,0000.0,0002.32,0001.27,0000.83
2022-12-06 12:47:00,,0819.1,5.00,0.00,21.4,19.5,00.0,30.5,23.1,15.0,0000.0,0002.25,0001.24,0000.83
2022-12-06 12:48:00,,0819.1,5.00,0.00,21.4,19.5,00.0,30.5,23.1,14.8,0000.0,0002.21,0001.23,0000.82
2022-12-06 12:49:00,,0819.1,5.00,0.00,21.3,19.5,00.0,30.5,23.0,14.8,0000.0,0002.16,0001.19,0000.80
2022-12-06 12:50:00,,0819.1,5.00,0.00,21.3,19.4,00.0,30.4,23.0,14.5,0000.0,0002.11,0001.15,0000.78
2022-12-06 12:51:00,,0819.0,5.01,0.00,21.3,19.4,00.0,30.4,23.0,14.1,0000.0,0002.07,0001.10,0000.75
2022-12-06 12:52:00,,0819.0,5.00,0.00,21.3,19.5,00.0,30.4,23.0,14.1,0000.0,0003.84,0001.13,0000.73
2022-12-06 12:53:00,,0819.0,5.01,0.00,21.3,20.6,00.0,30.3,23.2,14.4,0000.0,0004.08,0001.21,0000.74
2022-12-06 12:54:00,,0819.0,4.98,0.00,21.5,21.7,00.0,30.3,23.5,14.5,0000.0,0004.09,0001.22,0000.73
2022-12-06 12:55:00,,0819.1,5.01,0.00,21.6,21.7,00.0,30.4,23.6,14.4,0000.0,0004.05,0001.22,0000.73
2022-12-06 12:56:00,,0819.1,5.00,0.00,21.6,21.2,00.0,30.4,23.5,14.3,0000.0,0003.93,0001.17,0000.71
2022-12-06 12:57:00,,0819.2,5.00,0.00,21.6,20.8,00.0,30.5,23.4,14.5,0000.0,0003.74,0001.12,0000.68
2022-12-06 12:58:00,,0819.2,5.00,0.00,21.5,20.4,00.0,30.5,23.3,14.6,0000.0,0003.69,0001.08,0000.66
2022-12-06 12:59:00,,0819.3,5.01,0.00,21.5,20.2,00.0,30.5,23.3,14.7,0000.0,0003.68,0001.08,0000.67
